Palma de Mallorca, Spain

7:36 PM CEST on March 28, 2017 (GMT +0200)
Palma De Mallorca

Weather History for LEPA - October, 2014

Change the Weather History Date:

Monday, October 6, 2014

  Actual Average Record
Temperature  
Mean Temperature 71 °F -  
Max Temperature 83 °F 71 °F 89 °F (2004)
Min Temperature 59 °F 53 °F 50 °F (2008)
Cooling Degree Days 6    
Growing Degree Days 21 (Base 50)    
Moisture  
Dew Point 64 °F    
Average Humidity 82    
Maximum Humidity 100    
Minimum Humidity 50    
Precipitation  
Precipitation 0.00 in 0.08 in - ()
Sea Level Pressure  
Sea Level Pressure 29.95 in    
Wind  
Wind Speed 3 mph ()    
Max Wind Speed 12 mph    
Max Gust Speed -    
Visibility 7.3 miles    
Events      
Averages and records for this station are not official NWS values.
T = Trace of Precipitation, MM = Missing Value Source: Averaged Metar Reports

Daily Weather History Graph

Daily Weather History Graph

Search for Another Location

Airport or City:

Trip Planner

Search our weather history database for the weather conditions in past years. The results will help you decide how hot, cold, wet, or windy it might be!

Date:

Astronomy

Oct. 06, 2014 Rise Set
Actual Time 7:49 AM CEST 7:23 PM CEST
Civil Twilight 7:22 AM CEST 7:50 PM CEST
Nautical Twilight 6:51 AM CEST 8:21 PM CEST
Astronomical Twilight 6:20 AM CEST 8:53 PM CEST
Moon 6:10 PM CEST (10/6) 5:19 AM CEST (10/6)
Length of Visible Light 12h 27m
Length of Day
11h 34m
Waxing Gibbous, 94% of the Moon is Illuminated
Oct 6
Waxing Gibbous
Oct 8
Full
Oct 15
Last Quarter
Oct 23
New
Oct 31
First Quarter

Hourly Weather History & Observations

Time (CEST) Temp. Dew Point Humidity Pressure Visibility Wind Dir Wind Speed Gust Speed Precip Events Conditions
12:00 AM 64 °F 62 °F 89% 30.02 in - NNW 3.5 mph - -  
12:00 AM 64.4 °F 64.4 °F 100% 30.01 in 6.2 mi Variable 2.3 mph - N/A   Partly Cloudy
12:30 AM 62.6 °F 62.6 °F 100% 30.01 in 6.2 mi Variable 1.2 mph - N/A   Partly Cloudy
1:00 AM 62 °F 61 °F 94% 30.01 in - NE 2.3 mph - -  
1:00 AM 62.6 °F 62.6 °F 100% 30.01 in 6.2 mi NE 3.5 mph - N/A   Partly Cloudy
1:30 AM 62.6 °F 60.8 °F 94% 30.01 in 6.2 mi NE 2.3 mph - N/A   Partly Cloudy
2:00 AM 62 °F 61 °F 94% 30.00 in 12 mi Calm Calm - -   Scattered Clouds
2:00 AM 62.6 °F 62.6 °F 100% 29.98 in 6.2 mi Calm Calm - N/A   Partly Cloudy
2:30 AM 62.6 °F 60.8 °F 94% 29.98 in 6.2 mi North 3.5 mph - N/A   Partly Cloudy
3:00 AM 62 °F 61 °F 95% 29.99 in - North 2.3 mph - -  
3:00 AM 62.6 °F 60.8 °F 94% 29.98 in 6.2 mi Variable 1.2 mph - N/A   Partly Cloudy
3:30 AM 60.8 °F 59.0 °F 94% 29.98 in 6.2 mi NW 2.3 mph - N/A   Partly Cloudy
4:00 AM 61 °F 60 °F 96% 29.98 in - North 2.3 mph - -  
4:00 AM 60.8 °F 59.0 °F 94% 29.98 in 6.2 mi Calm Calm - N/A   Partly Cloudy
4:30 AM 60.8 °F 60.8 °F 100% 29.95 in 6.2 mi ENE 1.2 mph - N/A   Partly Cloudy
5:00 AM 60 °F 60 °F 98% 29.96 in 12 mi Calm Calm - -   Scattered Clouds
5:00 AM 60.8 °F 59.0 °F 94% 29.95 in 6.2 mi Calm Calm - N/A   Partly Cloudy
5:30 AM 60.8 °F 59.0 °F 94% 29.95 in 6.2 mi Calm Calm - N/A   Partly Cloudy
6:00 AM 60 °F 60 °F 99% 29.96 in - NNW 2.3 mph - -  
6:00 AM 59.0 °F 59.0 °F 100% 29.95 in 6.2 mi North 1.2 mph - N/A   Partly Cloudy
6:30 AM 60.8 °F 59.0 °F 94% 29.95 in 6.2 mi Calm Calm - N/A   Partly Cloudy
7:00 AM 60 °F 60 °F 98% 29.96 in - Calm Calm - -  
7:00 AM 60.8 °F 59.0 °F 94% 29.95 in 6.2 mi Calm Calm - N/A   Partly Cloudy
7:30 AM 60.8 °F 60.8 °F 100% 29.95 in 6.2 mi Variable 1.2 mph - N/A   Partly Cloudy
8:00 AM 61 °F 60 °F 97% 29.96 in 12 mi NNW 2.3 mph - -   Scattered Clouds
8:00 AM 60.8 °F 60.8 °F 100% 29.95 in 6.2 mi Variable 1.2 mph - N/A   Partly Cloudy
8:30 AM 62.6 °F 62.6 °F 100% 29.95 in 6.2 mi Calm Calm - N/A   Partly Cloudy
9:00 AM 64 °F 62 °F 93% 29.97 in - NNE 2.3 mph - -  
9:00 AM 62.6 °F 62.6 °F 100% 29.95 in 6.2 mi Calm Calm - N/A   Partly Cloudy
9:30 AM 62.6 °F 62.6 °F 100% 29.95 in 6.2 mi Calm Calm - N/A   Partly Cloudy
10:00 AM 69 °F 65 °F 81% 29.97 in - Calm Calm - -  
10:00 AM 68.0 °F 66.2 °F 94% 29.95 in 6.2 mi Calm Calm - N/A   Partly Cloudy
10:30 AM 71.6 °F 66.2 °F 83% 29.98 in 6.2 mi Calm Calm - N/A   Scattered Clouds
11:00 AM 74 °F 65 °F 67% 29.97 in 17 mi Calm Calm - -   Scattered Clouds
11:00 AM 71.6 °F 66.2 °F 83% 29.98 in 6.2 mi Variable 1.2 mph - N/A   Scattered Clouds
11:30 AM 75.2 °F 66.2 °F 73% 29.98 in 6.2 mi Variable 2.3 mph - N/A   Scattered Clouds
12:00 PM 79 °F 64 °F 51% 29.97 in - SSW 10.4 mph - -  
12:00 PM 77.0 °F 64.4 °F 65% 29.98 in 6.2 mi SSW 8.1 mph - N/A   Scattered Clouds
12:30 PM 77.0 °F 64.4 °F 65% 29.95 in 6.2 mi SSW 10.4 mph - N/A   Scattered Clouds
1:00 PM 79 °F 64 °F 50% 29.96 in - SSW 11.5 mph - -  
1:00 PM 77.0 °F 64.4 °F 65% 29.95 in 6.2 mi SSW 11.5 mph - N/A   Scattered Clouds
1:30 PM 78.8 °F 64.4 °F 61% 29.95 in 6.2 mi SW 11.5 mph - N/A   Scattered Clouds
2:00 PM 79 °F 64 °F 52% 29.95 in 19 mi SSW 11.5 mph - -   Scattered Clouds
2:00 PM 78.8 °F 64.4 °F 61% 29.95 in 6.2 mi SW 10.4 mph - N/A   Scattered Clouds
2:30 PM 78.8 °F 66.2 °F 65% 29.92 in 6.2 mi SW 11.5 mph - N/A   Scattered Clouds
3:00 PM 79 °F 65 °F 54% 29.93 in - SSW 10.4 mph - -  
3:00 PM 77.0 °F 66.2 °F 69% 29.92 in 6.2 mi SW 10.4 mph - N/A   Scattered Clouds
3:30 PM 78.8 °F 66.2 °F 65% 29.92 in 6.2 mi SSW 9.2 mph - N/A   Scattered Clouds
4:00 PM 80 °F 65 °F 52% 29.91 in - SSW 10.4 mph - -  
4:00 PM 77.0 °F 66.2 °F 69% 29.92 in 6.2 mi SW 11.5 mph - N/A   Scattered Clouds
4:30 PM 78.8 °F 66.2 °F 65% 29.89 in 6.2 mi SW 11.5 mph - N/A   Scattered Clouds
5:00 PM 79 °F 66 °F 56% 29.91 in 19 mi SSW 9.2 mph - -   Scattered Clouds
5:00 PM 77.0 °F 66.2 °F 69% 29.89 in 6.2 mi SW 11.5 mph - N/A   Partly Cloudy
5:30 PM 77.0 °F 66.2 °F 69% 29.89 in 6.2 mi SW 10.4 mph - N/A   Partly Cloudy
6:00 PM 78 °F 65 °F 55% 29.91 in - SSW 9.2 mph - -  
6:00 PM 78.8 °F 66.2 °F 65% 29.89 in 6.2 mi SSW 10.4 mph - N/A   Partly Cloudy
6:30 PM 77.0 °F 64.4 °F 65% 29.89 in 6.2 mi SSW 8.1 mph - N/A   Partly Cloudy
7:00 PM 76 °F 64 °F 59% 29.91 in - SSW 10.4 mph - -  
7:00 PM 77.0 °F 66.2 °F 69% 29.89 in 6.2 mi SSW 6.9 mph - N/A   Partly Cloudy
7:30 PM 75.2 °F 66.2 °F 73% 29.89 in 6.2 mi SSW 4.6 mph - N/A   Partly Cloudy
8:00 PM 74 °F 64 °F 65% 29.91 in 9 mi South 4.6 mph - -   Scattered Clouds
8:00 PM 75.2 °F 66.2 °F 73% 29.89 in 6.2 mi South 2.3 mph - N/A   Partly Cloudy
8:30 PM 73.4 °F 66.2 °F 78% 29.89 in 6.2 mi ESE 1.2 mph - N/A   Partly Cloudy
9:00 PM 72 °F 64 °F 69% 29.91 in - SE 2.3 mph - -  
9:00 PM 73.4 °F 68.0 °F 83% 29.89 in 6.2 mi ESE 2.3 mph - N/A   Partly Cloudy
9:30 PM 69.8 °F 69.8 °F 100% 29.92 in 6.2 mi Calm Calm - N/A   Partly Cloudy
10:00 PM 68 °F 64 °F 82% 29.92 in - ENE 1.2 mph - -  
10:00 PM 68.0 °F 68.0 °F 100% 29.92 in 6.2 mi Calm Calm - N/A   Partly Cloudy
10:30 PM 66.2 °F 66.2 °F 100% 29.92 in 6.2 mi Calm Calm - N/A   Partly Cloudy
11:00 PM 67 °F 64 °F 85% 29.92 in 9 mi Calm Calm - -   Scattered Clouds
11:00 PM 68.0 °F 68.0 °F 100% 29.92 in 6.2 mi ENE 1.2 mph - N/A   Partly Cloudy
11:30 PM 66.2 °F 66.2 °F 100% 29.92 in 6.2 mi ENE 1.2 mph - N/A   Partly Cloudy